Terminal Aerodrome Forecast
Issued by NWS

Home | Current Version | Previous Version | Text Only | Print | Product List | Glossary On
Versions: 1 2 3 4 5 6 7 8 9 10 11 12 13 14 15 16 17 18 19 20 21 22 23 24 25 26 27 28 29 30 31
000
FTUS43 KLOT 290523
TAFDPA
TAF
KDPA 290523Z 2906/3006 18012KT P6SM SCT150
     FM291200 19015G25KT P6SM BKN150
     FM291430 19023G35KT P6SM OVC080
      TEMPO 2915/2917 3SM -RAGSSN OVC035
     FM291700 20023G34KT 4SM -SHRA OVC025
     FM291930 22020G30KT P6SM OVC030
     FM300000 28012G24KT P6SM BKN025=

USA.gov is the U.S. government's official web portal to all federal, state and local government web resources and services.